Volver al catálogo

STARLINK-3456

ActivoComunicacionesVLEO
NORAD 51759·PAYLOAD·🇺🇸 United States

Lanzado Feb 21, 2022 desde Cape Canaveral Space Force Station

Loading…

Próximos Pases (próximas 24 horas)

TLE

ActualizadoSource: CelesTrak SupGP

Época: Sep 14, 2026, 21:58 UTC

1 51759C 22016AX  26257.91576389 -.00049130  00000+0 -14526-2 0  2573
2 51759  53.1576 165.4767 0001295  92.0887  81.3160 15.34392591    15

Sigue STARLINK-3456 en tiempo real con AllMySat

Download on the App Store